Overview Statistics Trail Chart Weather Telemetry Raw packets
 

This is the latest recevied weather packets stored in our database for station/object SM0UQT-10. If no packets are shown the sender has not sent any weather packets the latest 10 day(s).

<< 7 8 9 10 11 12 13 >>
Time Temp. Humidity Pressure Rain* Wind** Luminosity Snow
1788444528 18.33° C 53% 994.3 hPa - - - -
1788443628 18.33° C 55% 994.3 hPa - - - -
1788442728 17.78° C 52% 994.5 hPa - - - -
1788441828 17.78° C 53% 994.5 hPa - - - -
1788440928 17.78° C 55% 994.5 hPa - - - -
1788440027 17.78° C 55% 994.5 hPa - - - -
1788439127 17.22° C 55% 994.4 hPa - - - -
1788438227 17.22° C 55% 994.6 hPa - - - -
1788437327 16.67° C 55% 994.7 hPa - - - -
1788436427 16.67° C 58% 994.6 hPa - - - -
1788435527 16.11° C 56% 994.8 hPa - - - -
1788434661 16.67° C 57% 994.8 hPa - - - -
1788434627 16.67° C 57% 994.8 hPa - - - -
1788433727 16.11° C 57% 995 hPa - - - -
1788432827 16.11° C 57% 995.1 hPa - - - -
1788431927 16.11° C 60% 994.9 hPa - - - -
1788431027 15.56° C 59% 995.1 hPa - - - -
1788430127 15.56° C 60% 995.2 hPa - - - -
1788429226 15° C 60% 995.3 hPa - - - -
1788428326 15° C 59% 995.2 hPa - - - -
1788427426 15° C 61% 995.2 hPa - - - -
1788426526 15° C 62% 995.2 hPa - - - -
1788425626 14.44° C 62% 995.3 hPa - - - -
1788424726 14.44° C 63% 995.5 hPa - - - -
1788423858 13.89° C 63% 995.5 hPa - - - -

* Rain since midnight (hover to see other rain measurements)
** Current wind speed in m/s (hover to see current wind gust speed)